TimeMST,TemperatureF,Dew PointF,Humidity,Sea Level PressureIn,VisibilityMPH,Wind Direction,Wind SpeedMPH,Gust SpeedMPH,PrecipitationIn,Events,Conditions,WindDirDegrees,DateUTC
12:55 AM,61.0,48.0,62,30.12,10.0,Calm,Calm,-,N/A,,Scattered Clouds,0,2012-12-04 07:55:00
1:55 AM,61.0,46.9,60,30.12,10.0,Calm,Calm,-,N/A,,Mostly Cloudy,0,2012-12-04 08:55:00
2:55 AM,59.0,48.0,67,30.11,10.0,Calm,Calm,-,N/A,,Mostly Cloudy,0,2012-12-04 09:55:00
3:55 AM,60.1,46.0,60,30.12,10.0,ENE,3.5,-,N/A,,Mostly Cloudy,70,2012-12-04 10:55:00
4:55 AM,57.9,46.9,67,30.13,10.0,North,3.5,-,N/A,,Mostly Cloudy,360,2012-12-04 11:55:00
5:55 AM,59.0,46.9,64,30.14,10.0,NNE,3.5,-,N/A,,Scattered Clouds,30,2012-12-04 12:55:00
6:55 AM,61.0,46.9,60,30.15,10.0,NE,4.6,-,N/A,,Mostly Cloudy,50,2012-12-04 13:55:00
7:55 AM,57.9,46.0,65,30.18,10.0,Calm,Calm,-,N/A,,Mostly Cloudy,0,2012-12-04 14:55:00
8:55 AM,63.0,46.9,56,30.19,10.0,North,3.5,-,N/A,,Mostly Cloudy,10,2012-12-04 15:55:00
9:55 AM,68.0,46.9,47,30.20,10.0,NNE,8.1,-,N/A,,Mostly Cloudy,30,2012-12-04 16:55:00
10:55 AM,72.0,48.0,43,30.20,10.0,NNE,8.1,-,N/A,,Mostly Cloudy,30,2012-12-04 17:55:00
11:55 AM,75.0,48.0,38,30.19,10.0,NNE,8.1,-,N/A,,Mostly Cloudy,30,2012-12-04 18:55:00
12:55 PM,78.1,46.9,33,30.15,10.0,NNE,10.4,-,N/A,,Mostly Cloudy,30,2012-12-04 19:55:00
1:55 PM,80.1,46.0,30,30.13,10.0,NNE,6.9,-,N/A,,Mostly Cloudy,20,2012-12-04 20:55:00
2:55 PM,80.1,45.0,29,30.11,10.0,Variable,4.6,-,N/A,,Mostly Cloudy,0,2012-12-04 21:55:00
3:55 PM,81.0,42.1,25,30.10,10.0,NNE,9.2,-,N/A,,Mostly Cloudy,20,2012-12-04 22:55:00
4:55 PM,78.1,42.1,28,30.09,10.0,NNW,4.6,-,N/A,,Mostly Cloudy,340,2012-12-04 23:55:00
5:55 PM,75.0,43.0,32,30.09,10.0,North,6.9,-,N/A,,Mostly Cloudy,360,2012-12-05 00:55:00
6:00 PM,-9999,-9999,N/A,-9999,-9999.0,North,-9999.0,-,N/A,,Unknown,0,2012-12-05 01:00:00
6:55 PM,73.0,43.0,34,30.11,10.0,North,6.9,-,N/A,,Mostly Cloudy,360,2012-12-05 01:55:00
7:55 PM,71.1,43.0,36,30.11,10.0,NNW,3.5,-,N/A,,Mostly Cloudy,330,2012-12-05 02:55:00
8:55 PM,71.1,43.0,36,30.11,10.0,North,3.5,-,N/A,,Mostly Cloudy,350,2012-12-05 03:55:00
9:55 PM,64.0,45.0,50,30.10,10.0,Calm,Calm,-,N/A,,Scattered Clouds,0,2012-12-05 04:55:00
10:55 PM,64.0,48.0,56,30.10,10.0,WNW,5.8,-,N/A,,Scattered Clouds,300,2012-12-05 05:55:00
11:55 PM,63.0,46.9,56,30.09,10.0,NNW,3.5,-,N/A,,Scattered Clouds,330,2012-12-05 06:55:00